[[{"header":{"parameterUnit":"m.s-1","parameterCategory":2,"la1":30.2991,"la2":30.254,"lo1":-89.0895,"lo2":-89.0444,"dy":0.0017,"dx":0.0017,"nx":28,"ny":28,"refTime":"2023-10-14T03:00:00:Z","depth":"0","parameterNumber":2,"parameterNumberName":"U-component_of_CURRENTS"},"data":[0,0,0,0,0,0,0,0,0,0,0,0,0,0,0,0,0,0,0,0,0,0,0,0,0,0,0,0,0,0,0,0,0,0,0,0,0,0,0,0,0,0,0,0,0,0,0,0,0,0,0,0,0,0,0,0,0,0,0.3406,0.3406,0,0.337,0.3369,0.3369,0.3408,0.3409,0.341,0.3411,0.3343,0.3341,0.3338,0,0,0,0,0,0,0,0,0,0,0,0,0,0.3468,0.3467,0.3406,0.3406,0.3405,0.337,0.3369,0.3369,0.3407,0.3409,0.341,0.3412,0.3344,0.3341,0.3337,0,0,0,0,0,0,0,0,0,0,0,0,0,0.344,0.3467,0.3406,0.3418,0.3418,0.337,0.3369,0.3369,0.3407,0.3409,0.3411,0.3412,0.3346,0.3341,0.3337,0.3273,0,0,0.3323,0.3321,0,0,0,0,0,0,0,0,0.3442,0.3438,0.3417,0.3417,0.3417,0.3393,0.3366,0.3334,0.3407,0.3414,0.3411,0.3413,0.3354,0.3349,0.3342,0.3269,0.3266,0.3323,0.332,0.3318,0.3317,0,0,0,0,0,0,0,0.3443,0.3439,0.3395,0.3416,0.3416,0.341,0.3409,0.336,0.3376,0.3414,0.3416,0.3406,0.3354,0.3346,0.3341,0.3265,0.3323,0.3319,0.3316,0.3315,0.3121,0.3119,0,0,0,0,0,0,0.3442,0.3441,0.3396,0.3393,0.3431,0.3407,0.3406,0.3401,0.3377,0.3374,0.3405,0.3408,0.3353,0.3346,0.3338,0.3262,0.3318,0.3314,0.3312,0.3124,0.3121,0.3118,0,0,0,0,0,0,0.3444,0.3439,0.3397,0.3414,0.3408,0.3404,0.3398,0.3399,0.3393,0.337,0.3368,0.3398,0.3354,0.3345,0.3296,0.326,0.3312,0.3308,0.3127,0.3123,0.3119,0.3109,0,0,0,0,0,0,0.3446,0.344,0.3425,0.3414,0.3407,0.3351,0.3396,0.3397,0.3383,0.3387,0.3362,0.3358,0.3355,0.3302,0.3291,0.3255,0.3305,0.313,0.3125,0.3121,0.3112,0.3105,0.3099,0,0,0,0,0,0.3448,0.3417,0.3424,0.3418,0.3391,0.3348,0.3343,0.335,0.338,0.3356,0.3355,0.3359,0.3265,0.3297,0.3284,0.3246,0.3132,0.3126,0.3121,0.3115,0.3107,0.3099,0,0,0,0,0,0,0.3449,0.3417,0.3426,0.3391,0.3365,0.3354,0.3325,0.3341,0.3321,0.3331,0.3331,0.3324,0.3268,0.3247,0.3283,0.3173,0.3196,0.3188,0.3195,0.3187,0.3181,0.321,0.3301,0,0,0,0,0,0.3438,0.34,0.3381,0.3352,0.3334,0.3331,0.3314,0.3322,0.3307,0.3303,0.3292,0.3268,0.323,0.3206,0.3168,0.3103,0.3115,0.3066,0.306,0.3055,0.3067,0.3061,0.3057,0.31,0.31,0.31,0,0,0.3429,0.3407,0.3387,0.3347,0.3329,0.3297,0.3326,0.3293,0.3284,0.3293,0.3268,0.3243,0.3207,0.3148,0.3119,0.313,0.3042,0.3047,0.3044,0.3059,0.3055,0.3051,0.3048,0.3096,0.3097,0.3097,0,0,0.3396,0.3373,0.3333,0.3303,0.3268,0.326,0.325,0.3233,0.3239,0.3206,0.3212,0.3177,0.3115,0.3092,0.3071,0.2997,0.301,0.2965,0.2955,0.2948,0.2946,0.2944,0.2943,0.2941,0.2959,0.2959,0.2959,0,0.3393,0.3346,0.3314,0.3274,0.3249,0.3245,0.3212,0.3203,0.3182,0.3178,0.3194,0.3123,0.3095,0.3036,0.3015,0.2986,0.2988,0.2996,0.2945,0.2943,0.2942,0.2941,0.294,0.2958,0.2958,0.2958,0.2959,0,0.3332,0.3297,0.3265,0.3217,0.3184,0.3145,0.3133,0.3111,0.3122,0.3127,0.3085,0.3059,0.3025,0.2992,0.2986,0.2938,0.2944,0.2945,0.298,0.2938,0.2938,0.2937,0.2956,0.2957,0.2957,0.2958,0,0,0.3305,0.3242,0.3234,0.3204,0.3153,0.3121,0.3091,0.3061,0.3054,0.304,0.3032,0.2973,0.2983,0.2959,0.2936,0.2925,0.2911,0.293,0.293,0.2955,0.2901,0.2875,0.2872,0.2908,0.2908,0.2908,0.2903,0,0.3268,0.3216,0.3186,0.312,0.3076,0.3056,0.3033,0.3011,0.3005,0.2991,0.2982,0.2956,0.2963,0.2943,0.2937,0.2914,0.2908,0.2913,0.2915,0.2915,0.292,0.2869,0.2681,0.2659,0.2902,0.2902,0.2902,0,0.3194,0.3172,0.3138,0.3072,0.3053,0.3026,0.2981,0.296,0.2943,0.2941,0.293,0.2932,0.2906,0.2925,0.2905,0.2909,0.291,0.2902,0.2902,0.2887,0.2887,0.2737,0.2648,0.2386,0.29,0.29,0.29,0,0.3166,0.311,0.3098,0.3075,0.3025,0.3005,0.2974,0.2949,0.2932,0.2912,0.29,0.2893,0.2876,0.2888,0.2885,0.2895,0.2873,0.2884,0.2865,0.2863,0.2709,0.2694,0.2391,0.2882,0.2882,0.2882,0.2882,0,0.3109,0.3066,0.3091,0.3067,0.3035,0.2999,0.2962,0.2931,0.2908,0.288,0.2883,0.2856,0.2866,0.2859,0.2878,0.2864,0.2871,0.286,0.2856,0.2696,0.2681,0.2455,0.2409,0.2882,0.2882,0.2882,0.2882,0,0.3046,0.307,0.3021,0.3013,0.3014,0.2984,0.294,0.2914,0.2893,0.2855,0.2846,0.282,0.2803,0.282,0.2817,0.2831,0.2713,0.2827,0.2643,0.2618,0.2375,0.2339,0.2215,0.2182,0.2809,0.2808,0.2808,0,0.3008,0.2999,0.3002,0.2991,0.2984,0.2955,0.294,0.2912,0.2883,0.2827,0.2808,0.2775,0.2749,0.2741,0.2738,0.2757,0.2645,0.2589,0.2578,0.2319,0.2276,0.2296,0.228,0.236,0.2355,0.2352,0.2349,0,0.2923,0.2946,0.2933,0.294,0.293,0.2909,0.2879,0.2867,0.2834,0.2806,0.2749,0.2722,0.2678,0.2586,0.2592,0.2577,0.2392,0.2523,0.2271,0.1916,0.1899,0.1876,0.2418,0.2318,0.2321,0.2324,0.2325,0.2327,0.2853,0.2843,0.2864,0.2859,0.2862,0.2857,0.2813,0.2801,0.2773,0.2683,0.2695,0.2566,0.2389,0.2373,0.2331,0.2016,0.2238,0.1875,0.1862,0.1913,0.1835,0.2332,0.2225,0.2228,0.223,0.2232,0.2233,0,0.2747,0.2769,0.2771,0.2771,0.2771,0.2789,0.2766,0.2704,0.2663,0.2571,0.251,0.2196,0.2003,0.1801,0.1501,0.132,0.1347,0.1193,0.1079,0.1113,0.1498,0.1421,0.1112,0.1112,0.1112,0.1113,0.1113,0.1113,0.2686,0.2663,0.2694,0.2691,0.2702,0.2658,0.2634,0.254,0.244,0.2175,0.1943,0.1827,0.1447,0.0975,0.0563,0.0545,0.0455,0.0471,0.0555,0.0643,0.0702,0.0758,0.0662,0.0199,0.0198,0.0094,0.0092,0.009]},{"header":{"parameterUnit":"m.s-1","parameterCategory":2,"la1":30.2991,"la2":30.254,"lo1":-89.0895,"lo2":-89.0444,"dy":0.0017,"dx":0.0017,"nx":28,"ny":28,"refTime":"2023-10-14T03:00:00:Z","depth":"0","parameterNumber":3,"parameterNumberName":"V-component_of_CURRENTS"},"data":[0,0,0,0,0,0,0,0,0,0,0,0,0,0,0,0,0,0,0,0,0,0,0,0,0,0,0,0,0,0,0,0,0,0,0,0,0,0,0,0,0,0,0,0,0,0,0,0,0,0,0,0,0,0,0,0,0,0,-0.1185,-0.1185,0,-0.1167,-0.1168,-0.1168,-0.1141,-0.1141,-0.114,-0.1139,-0.1158,-0.116,-0.1161,0,0,0,0,0,0,0,0,0,0,0,0,0,-0.1259,-0.1258,-0.1185,-0.1185,-0.1184,-0.1167,-0.1168,-0.1168,-0.1142,-0.1141,-0.114,-0.1139,-0.1158,-0.1159,-0.1161,0,0,0,0,0,0,0,0,0,0,0,0,0,-0.1235,-0.1257,-0.1185,-0.1167,-0.1165,-0.1167,-0.1168,-0.1168,-0.1142,-0.1141,-0.114,-0.1138,-0.1158,-0.1159,-0.1161,-0.1194,0,0,-0.1167,-0.1167,0,0,0,0,0,0,0,0,-0.1237,-0.1233,-0.117,-0.1168,-0.1166,-0.1153,-0.12,-0.1177,-0.1142,-0.1154,-0.1139,-0.1138,-0.1159,-0.116,-0.1163,-0.1195,-0.1196,-0.1167,-0.1168,-0.1169,-0.1169,0,0,0,0,0,0,0,-0.1238,-0.1234,-0.1181,-0.117,-0.1167,-0.1181,-0.1176,-0.1196,-0.1166,-0.1153,-0.115,-0.1144,-0.1158,-0.1162,-0.1164,-0.1196,-0.1167,-0.1168,-0.1169,-0.117,-0.1254,-0.1255,0,0,0,0,0,0,-0.1232,-0.1235,-0.1182,-0.118,-0.1196,-0.118,-0.1175,-0.1161,-0.1165,-0.1163,-0.1144,-0.1142,-0.1159,-0.1162,-0.1164,-0.12,-0.1169,-0.117,-0.1171,-0.1253,-0.1254,-0.1256,0,0,0,0,0,0,-0.1234,-0.1227,-0.1182,-0.1206,-0.12,-0.1179,-0.1164,-0.1161,-0.1161,-0.1157,-0.1157,-0.1147,-0.1158,-0.1162,-0.1193,-0.1201,-0.1171,-0.1173,-0.1252,-0.1253,-0.1255,-0.1275,0,0,0,0,0,0,-0.1236,-0.1228,-0.1222,-0.1205,-0.1199,-0.1196,-0.1165,-0.1161,-0.1157,-0.1155,-0.116,-0.116,-0.1158,-0.1191,-0.1195,-0.1203,-0.1174,-0.125,-0.1252,-0.1254,-0.1273,-0.1277,-0.1281,0,0,0,0,0,-0.1238,-0.1243,-0.1222,-0.1216,-0.1189,-0.1196,-0.1196,-0.1179,-0.1159,-0.1173,-0.1175,-0.116,-0.1207,-0.1194,-0.1199,-0.1207,-0.1249,-0.1252,-0.1254,-0.1271,-0.1277,-0.1281,0,0,0,0,0,0,-0.1291,-0.124,-0.1217,-0.1209,-0.1204,-0.1191,-0.1204,-0.1184,-0.1196,-0.1199,-0.1184,-0.1186,-0.1211,-0.1216,-0.1201,-0.1239,-0.1223,-0.1226,-0.1234,-0.1239,-0.1243,-0.1243,-0.1176,0,0,0,0,0,-0.1293,-0.1272,-0.1243,-0.1242,-0.124,-0.122,-0.1221,-0.1212,-0.1214,-0.1217,-0.1211,-0.1217,-0.1228,-0.1238,-0.1251,-0.1282,-0.127,-0.1289,-0.1293,-0.1296,-0.1301,-0.1299,-0.1303,-0.1264,-0.1264,-0.1264,0,0,-0.1313,-0.1284,-0.1272,-0.125,-0.1246,-0.1252,-0.122,-0.1234,-0.124,-0.1221,-0.1237,-0.1234,-0.124,-0.1266,-0.1278,-0.127,-0.13,-0.13,-0.1302,-0.1305,-0.1302,-0.1306,-0.1309,-0.1266,-0.1266,-0.1265,0,0,-0.1353,-0.132,-0.1318,-0.1311,-0.1301,-0.1292,-0.1295,-0.1283,-0.1281,-0.13,-0.1279,-0.1284,-0.1305,-0.1303,-0.1306,-0.1345,-0.1319,-0.1347,-0.137,-0.1368,-0.1371,-0.1373,-0.135,-0.135,-0.1351,-0.1351,-0.1351,0,-0.1386,-0.1361,-0.1328,-0.1332,-0.1325,-0.1308,-0.132,-0.1325,-0.1324,-0.1323,-0.1314,-0.132,-0.1321,-0.1337,-0.1347,-0.1352,-0.1342,-0.1347,-0.1371,-0.1374,-0.1375,-0.1352,-0.1352,-0.1352,-0.1352,-0.1352,-0.1352,0,-0.1424,-0.14,-0.141,-0.1389,-0.1388,-0.1403,-0.1392,-0.1399,-0.1386,-0.1378,-0.1388,-0.1386,-0.1383,-0.1383,-0.1379,-0.1391,-0.1374,-0.1372,-0.1354,-0.138,-0.1354,-0.1353,-0.1354,-0.1354,-0.1353,-0.1353,0,0,-0.1519,-0.1444,-0.1454,-0.1421,-0.1414,-0.1414,-0.1435,-0.1437,-0.1437,-0.1442,-0.1437,-0.145,-0.1432,-0.1435,-0.142,-0.142,-0.1416,-0.1405,-0.1405,-0.1374,-0.1398,-0.1251,-0.1236,-0.1418,-0.1418,-0.1418,-0.1369,0,-0.1565,-0.1551,-0.1512,-0.1505,-0.1488,-0.1464,-0.1474,-0.1476,-0.1475,-0.1473,-0.1469,-0.1466,-0.1458,-0.1447,-0.1451,-0.1425,-0.1419,-0.1429,-0.1386,-0.1384,-0.1242,-0.1231,-0.1066,-0.0997,-0.1368,-0.1368,-0.1368,0,-0.1624,-0.1591,-0.1586,-0.1505,-0.1503,-0.1504,-0.1495,-0.15,-0.1504,-0.1499,-0.1502,-0.1493,-0.1493,-0.1478,-0.1458,-0.1465,-0.1438,-0.1416,-0.1414,-0.1269,-0.1236,-0.1034,-0.0981,-0.0893,-0.1367,-0.1367,-0.1367,0,-0.1685,-0.1639,-0.1624,-0.1607,-0.1544,-0.1537,-0.1513,-0.1512,-0.1507,-0.1511,-0.1505,-0.1511,-0.1494,-0.1486,-0.1435,-0.1454,-0.1394,-0.1414,-0.1256,-0.1245,-0.109,-0.1064,-0.0936,-0.1399,-0.1399,-0.1399,-0.1399,0,-0.173,-0.1708,-0.1643,-0.1629,-0.1608,-0.1558,-0.1549,-0.1532,-0.1518,-0.1502,-0.1515,-0.1492,-0.1496,-0.1459,-0.1436,-0.1318,-0.1392,-0.1246,-0.1218,-0.109,-0.1066,-0.0971,-0.098,-0.1397,-0.1397,-0.1398,-0.1398,0,-0.1771,-0.1741,-0.1697,-0.1637,-0.1624,-0.1605,-0.1544,-0.1532,-0.1521,-0.15,-0.1498,-0.1478,-0.1404,-0.1378,-0.1332,-0.1282,-0.1119,-0.1152,-0.0982,-0.0934,-0.0694,-0.0711,-0.0597,-0.054,-0.0977,-0.0973,-0.097,0,-0.1771,-0.1764,-0.1712,-0.1685,-0.1649,-0.1611,-0.1588,-0.155,-0.1523,-0.1473,-0.1455,-0.1385,-0.1273,-0.1134,-0.1037,-0.0929,-0.0939,-0.0737,-0.0739,-0.0633,-0.0635,-0.0681,-0.0648,-0.0551,-0.0545,-0.0539,-0.0535,0,-0.1757,-0.1758,-0.1723,-0.1676,-0.1644,-0.16,-0.1546,-0.1527,-0.1476,-0.1415,-0.1294,-0.119,-0.1025,-0.078,-0.0638,-0.0593,-0.0618,-0.062,-0.0564,-0.0319,-0.0311,-0.0257,-0.0635,-0.0487,-0.0492,-0.0495,-0.0498,-0.05,-0.1742,-0.1717,-0.168,-0.1628,-0.16,-0.1544,-0.1451,-0.138,-0.1281,-0.1078,-0.1087,-0.0793,-0.0558,-0.0297,-0.0269,-0.0088,-0.0245,-0.0025,-0.0066,-0.0131,-0.0032,-0.028,-0.0066,-0.0068,-0.007,-0.0072,-0.0073,0,-0.1671,-0.1647,-0.1611,-0.153,-0.1457,-0.1464,-0.1378,-0.1222,-0.1014,-0.0836,-0.062,-0.0215,0.0085,0.021,0.041,0.0473,0.0401,0.047,0.0426,0.0421,0.0186,0.0255,0.0616,0.0616,0.0615,0.0615,0.0615,0.0615,-0.1626,-0.1555,-0.1531,-0.1385,-0.1328,-0.1159,-0.1068,-0.0852,-0.0659,-0.0252,0.005,0.0231,0.0393,0.0656,0.0833,0.0833,0.0809,0.0835,0.0743,0.0582,0.0531,0.0482,0.0548,0.0964,0.0964,0.1037,0.1038,0.1038]}],[{"header":{"parameterUnit":"m.s-1","parameterCategory":2,"la1":30.2991,"la2":30.254,"lo1":-89.0895,"lo2":-89.0444,"dy":0.0017,"dx":0.0017,"nx":28,"ny":28,"refTime":"2023-10-14T03:00:00:Z","depth":"2","parameterNumber":2,"parameterNumberName":"U-component_of_CURRENTS"},"data":[0,0,0,0,0,0,0,0,0,0,0,0,0,0,0,0,0,0,0,0,0,0,0,0,0,0,0,0,0,0,0,0,0,0,0,0,0,0,0,0,0,0,0,0,0,0,0,0,0,0,0,0,0,0,0,0,0,0,0.0611,0.061,0,0.0586,0.0586,0.0586,0.0614,0.0615,0.0616,0.0617,0.0574,0.0572,0.057,0,0,0,0,0,0,0,0,0,0,0,0,0,0.0683,0.0682,0.0611,0.061,0.061,0.0586,0.0586,0.0586,0.0613,0.0615,0.0616,0.0617,0.0575,0.0573,0.057,0,0,0,0,0,0,0,0,0,0,0,0,0,0.0655,0.0681,0.0611,0.0621,0.0622,0.0586,0.0586,0.0586,0.0613,0.0615,0.0616,0.0618,0.0576,0.0573,0.057,0.0519,0,0,0.056,0.0559,0,0,0,0,0,0,0,0,0.0656,0.0652,0.062,0.062,0.0621,0.0604,0.0596,0.0562,0.0613,0.0617,0.0617,0.0618,0.0581,0.0578,0.057,0.0518,0.0516,0.056,0.0558,0.0557,0.0556,0,0,0,0,0,0,0,0.0658,0.0653,0.0601,0.0619,0.062,0.0627,0.0625,0.059,0.059,0.0616,0.0618,0.0615,0.0582,0.0573,0.057,0.0515,0.056,0.0557,0.0555,0.0554,0.0563,0.0565,0,0,0,0,0,0,0.0658,0.0655,0.0602,0.06,0.0642,0.0625,0.0622,0.0608,0.0591,0.059,0.0613,0.0616,0.0578,0.0573,0.0568,0.0608,0.0557,0.0554,0.0552,0.0561,0.0564,0.0566,0,0,0,0,0,0,0.066,0.0653,0.0603,0.0628,0.0622,0.0622,0.0606,0.0607,0.0627,0.0589,0.0588,0.0636,0.0579,0.0573,0.0565,0.0603,0.0552,0.055,0.0559,0.0562,0.0565,0.0623,0,0,0,0,0,0,0.0662,0.0654,0.0663,0.0627,0.062,0.0603,0.0605,0.0605,0.062,0.0625,0.0607,0.0603,0.058,0.057,0.0562,0.0598,0.0547,0.0556,0.056,0.0564,0.0618,0.0627,0.0635,0,0,0,0,0,0.0664,0.065,0.0663,0.0658,0.0626,0.0603,0.0601,0.0606,0.062,0.0631,0.0623,0.0606,0.0591,0.0567,0.0558,0.0594,0.0554,0.0559,0.0564,0.0614,0.0626,0.0635,0,0,0,0,0,0,0.0693,0.065,0.0664,0.0642,0.0641,0.0609,0.0616,0.062,0.0621,0.0632,0.0605,0.06,0.0618,0.0596,0.0571,0.0615,0.058,0.0583,0.0623,0.0633,0.0641,0.064,0.0544,0,0,0,0,0,0.0702,0.0678,0.0658,0.0649,0.0649,0.0642,0.0641,0.0644,0.063,0.0635,0.0626,0.0625,0.0624,0.062,0.0613,0.061,0.0613,0.064,0.0649,0.0656,0.0653,0.0686,0.0697,0.0582,0.0582,0.0582,0,0,0.0706,0.0687,0.0673,0.0655,0.0654,0.0648,0.0646,0.0646,0.0655,0.0625,0.0645,0.0648,0.0632,0.0647,0.0655,0.0634,0.0698,0.0662,0.0668,0.066,0.0692,0.0703,0.0713,0.0585,0.0584,0.0584,0,0,0.0698,0.0696,0.0677,0.0676,0.0676,0.0668,0.0676,0.0667,0.0685,0.069,0.0692,0.0716,0.07,0.0707,0.0704,0.0753,0.0745,0.0769,0.08,0.0833,0.0842,0.085,0.0893,0.0904,0.0769,0.0769,0.077,0,0.0713,0.0687,0.0675,0.0669,0.0671,0.0681,0.068,0.0688,0.0685,0.0706,0.071,0.0742,0.073,0.0755,0.0781,0.0771,0.0791,0.0756,0.0843,0.0851,0.0858,0.0899,0.0911,0.0773,0.0772,0.0772,0.0772,0,0.0682,0.0686,0.0678,0.067,0.0678,0.0674,0.0684,0.0711,0.0737,0.0751,0.0803,0.08,0.0822,0.0838,0.0814,0.0873,0.0873,0.0852,0.081,0.0872,0.0913,0.0924,0.0778,0.0776,0.0775,0.0775,0,0,0.064,0.0652,0.0652,0.0674,0.0679,0.068,0.0708,0.0734,0.0769,0.0802,0.0846,0.0872,0.0897,0.0897,0.0899,0.0924,0.0999,0.0911,0.0911,0.0943,0.1088,0.1022,0.1027,0.0993,0.0995,0.0996,0.1105,0,0.0625,0.0625,0.0629,0.065,0.0659,0.0688,0.0714,0.0751,0.0789,0.0836,0.0875,0.0913,0.0912,0.0935,0.0966,0.0975,0.1027,0.0972,0.1031,0.1033,0.0957,0.1037,0.0822,0.0894,0.1115,0.1117,0.1118,0,0.0587,0.0597,0.0614,0.0665,0.0672,0.0691,0.0753,0.0777,0.0843,0.0876,0.0933,0.096,0.1008,0.0999,0.1074,0.104,0.1079,0.1095,0.1099,0.1017,0.0986,0.0864,0.0905,0.1136,0.1134,0.1133,0.1132,0,0.0568,0.0589,0.0613,0.0622,0.067,0.0704,0.0737,0.0801,0.084,0.0908,0.0946,0.1007,0.1033,0.1092,0.1137,0.111,0.1221,0.1183,0.1176,0.1173,0.0989,0.0965,0.1267,0.1267,0.1267,0.1267,0.1266,0,0.0543,0.0566,0.0613,0.0627,0.0672,0.0709,0.0773,0.0811,0.0877,0.0931,0.0973,0.1031,0.1056,0.1122,0.1167,0.1208,0.1257,0.1197,0.1197,0.1007,0.0984,0.118,0.1168,0.1271,0.127,0.1269,0.1268,0,0.0535,0.0556,0.0591,0.0645,0.067,0.0708,0.0792,0.0842,0.0891,0.096,0.0984,0.1049,0.1122,0.1173,0.1252,0.1228,0.1286,0.1305,0.1084,0.1054,0.121,0.12,0.1283,0.1281,0.128,0.1279,0.1278,0,0.0532,0.055,0.0607,0.0635,0.0669,0.0732,0.0786,0.0849,0.0902,0.0987,0.1027,0.11,0.1169,0.1251,0.1207,0.1259,0.1332,0.108,0.0975,0.1221,0.1213,0.1205,0.1197,0.0775,0.077,0.0766,0.0763,0,0.0537,0.0562,0.059,0.0647,0.0704,0.0768,0.0846,0.0872,0.0946,0.1016,0.1109,0.1165,0.1179,0.1084,0.1087,0.1092,0.1035,0.0998,0.1324,0.0795,0.0747,0.0738,0.0746,0.0727,0.0731,0.0733,0.0735,0.0737,0.0547,0.0568,0.0611,0.0678,0.0734,0.0801,0.0832,0.0898,0.0977,0.099,0.1086,0.1038,0.0959,0.0826,0.0842,0.0786,0.0889,0.0768,0.0778,0.0793,0.0705,0.0657,0.0606,0.0608,0.0611,0.0613,0.0615,0,0.0559,0.0606,0.065,0.071,0.0753,0.0824,0.088,0.0868,0.093,0.0879,0.092,0.0674,0.0589,0.0553,0.0398,0.0405,0.0392,0.0374,0.031,0.0343,0.0373,0.0263,0.0047,0.0046,0.0046,0.0045,0,0,0.0568,0.0616,0.0651,0.0729,0.0787,0.0858,0.0886,0.082,0.0744,0.0631,0.0498,0.046,0.0436,0.0188,0.0181,0.0093,0.0228,0.007,0.0505,0.0457,0.0487,0.0559,0.0421,0,0,0,0,0]},{"header":{"parameterUnit":"m.s-1","parameterCategory":2,"la1":30.2991,"la2":30.254,"lo1":-89.0895,"lo2":-89.0444,"dy":0.0017,"dx":0.0017,"nx":28,"ny":28,"refTime":"2023-10-14T03:00:00:Z","depth":"2","parameterNumber":3,"parameterNumberName":"V-component_of_CURRENTS"},"data":[0,0,0,0,0,0,0,0,0,0,0,0,0,0,0,0,0,0,0,0,0,0,0,0,0,0,0,0,0,0,0,0,0,0,0,0,0,0,0,0,0,0,0,0,0,0,0,0,0,0,0,0,0,0,0,0,0,0,0.062,0.0621,0,0.0686,0.0686,0.0687,0.0675,0.0674,0.0672,0.0671,0.0611,0.0611,0.061,0,0,0,0,0,0,0,0,0,0,0,0,0,0.0473,0.0476,0.062,0.0621,0.0622,0.0686,0.0686,0.0687,0.0675,0.0674,0.0672,0.0671,0.0611,0.0611,0.061,0,0,0,0,0,0,0,0,0,0,0,0,0,0.0538,0.0477,0.062,0.0623,0.0624,0.0685,0.0686,0.0688,0.0675,0.0673,0.0672,0.067,0.0612,0.0611,0.061,0.0641,0,0,0.0608,0.0607,0,0,0,0,0,0,0,0,0.0534,0.0543,0.0622,0.0623,0.0625,0.067,0.0613,0.0666,0.0676,0.0656,0.0671,0.0669,0.0621,0.0619,0.0637,0.0638,0.0635,0.0608,0.0607,0.0607,0.0607,0,0,0,0,0,0,0,0.053,0.054,0.0646,0.0623,0.0625,0.0618,0.0625,0.0623,0.0645,0.0658,0.0657,0.0665,0.062,0.0638,0.0635,0.0634,0.0608,0.0607,0.0607,0.0606,0.0602,0.0602,0,0,0,0,0,0,0.0525,0.0537,0.0644,0.0648,0.0574,0.0622,0.063,0.0657,0.0648,0.0646,0.0666,0.0664,0.064,0.0636,0.0633,0.062,0.0607,0.0606,0.0606,0.0601,0.0602,0.0602,0,0,0,0,0,0,0.0522,0.0535,0.0641,0.0592,0.0605,0.0626,0.0657,0.066,0.0655,0.0656,0.0651,0.0656,0.0639,0.0634,0.0629,0.0619,0.0606,0.0605,0.0601,0.0602,0.0602,0.0625,0,0,0,0,0,0,0.0518,0.0534,0.0533,0.0593,0.0608,0.0671,0.0659,0.0662,0.0664,0.0661,0.0646,0.064,0.0637,0.063,0.0628,0.0618,0.0605,0.0601,0.0601,0.0602,0.0624,0.0627,0.0629,0,0,0,0,0,0.0513,0.0524,0.0533,0.0544,0.0613,0.0671,0.0678,0.0686,0.0665,0.0672,0.0664,0.0639,0.0632,0.0631,0.0628,0.0617,0.06,0.0601,0.0602,0.0623,0.0626,0.0629,0,0,0,0,0,0,0.0447,0.0526,0.0536,0.0567,0.0611,0.0669,0.0668,0.0677,0.0681,0.066,0.0654,0.0649,0.0641,0.063,0.0628,0.0618,0.0608,0.0608,0.0625,0.0627,0.0629,0.0641,0.0604,0,0,0,0,0,0.0438,0.0469,0.0541,0.0558,0.0582,0.0621,0.0635,0.0648,0.0668,0.0666,0.0658,0.0646,0.0649,0.0637,0.0638,0.0634,0.0626,0.0623,0.0625,0.0627,0.0635,0.063,0.0632,0.0605,0.0605,0.0605,0,0,0.0412,0.046,0.0472,0.0546,0.0576,0.0622,0.0624,0.0648,0.0673,0.0658,0.0663,0.0654,0.0652,0.0655,0.0648,0.0638,0.0628,0.0628,0.063,0.0637,0.0631,0.0634,0.0636,0.0605,0.0605,0.0605,0,0,0.0405,0.0426,0.0463,0.0504,0.0558,0.0593,0.0597,0.0649,0.0654,0.0674,0.0666,0.0663,0.0655,0.0666,0.0668,0.0683,0.0645,0.066,0.0673,0.0668,0.0671,0.0673,0.0655,0.0655,0.0654,0.0654,0.0654,0,0.0362,0.0438,0.0476,0.0527,0.0557,0.0581,0.0627,0.0648,0.0683,0.0697,0.0669,0.0683,0.0671,0.0697,0.0695,0.0689,0.0668,0.0663,0.0672,0.0673,0.0675,0.0656,0.0656,0.0655,0.0655,0.0655,0.0655,0,0.0413,0.0453,0.0474,0.0555,0.0586,0.0623,0.0671,0.0686,0.0684,0.0708,0.0721,0.0716,0.0721,0.0712,0.0705,0.0711,0.0686,0.068,0.0665,0.0679,0.0658,0.0658,0.0657,0.0657,0.0656,0.0656,0,0,0.0376,0.0491,0.0495,0.0543,0.0605,0.0648,0.0678,0.0741,0.0762,0.0763,0.0791,0.0791,0.0769,0.077,0.0753,0.0745,0.073,0.0705,0.0704,0.0688,0.0697,0.0751,0.0755,0.0712,0.0713,0.0713,0.0674,0,0.0405,0.0519,0.0555,0.0629,0.0696,0.0715,0.075,0.0788,0.0802,0.0825,0.082,0.0821,0.0796,0.0774,0.0771,0.0736,0.073,0.074,0.0685,0.0684,0.0732,0.0758,0.0761,0.0734,0.0674,0.0673,0.0673,0,0.0463,0.0534,0.0627,0.0711,0.0735,0.0753,0.0814,0.0842,0.0872,0.0871,0.087,0.0859,0.0843,0.0813,0.0775,0.0772,0.0738,0.0716,0.0714,0.076,0.0739,0.0712,0.0735,0.0672,0.0672,0.0673,0.0673,0,0.0489,0.0584,0.0664,0.0692,0.0779,0.0789,0.0807,0.0845,0.0858,0.0871,0.0855,0.087,0.0809,0.0809,0.0752,0.0749,0.071,0.0704,0.0734,0.0736,0.073,0.0733,0.0698,0.0698,0.0698,0.0698,0.0698,0,0.0547,0.0602,0.0669,0.0715,0.0767,0.0797,0.0825,0.0848,0.0846,0.0843,0.0846,0.0833,0.0793,0.0769,0.0763,0.0744,0.0714,0.075,0.0741,0.0739,0.0742,0.0684,0.0683,0.0696,0.0697,0.0697,0.0697,0,0.0585,0.0637,0.0722,0.0786,0.0789,0.0814,0.0805,0.083,0.0801,0.0785,0.0768,0.0754,0.0735,0.0734,0.0706,0.0717,0.073,0.0732,0.0729,0.0724,0.0757,0.0757,0.0776,0.0778,0.078,0.0781,0.0782,0,0.0631,0.0682,0.0754,0.0774,0.0787,0.0803,0.0816,0.0807,0.0807,0.0746,0.074,0.0701,0.0744,0.0749,0.0774,0.0813,0.0758,0.0787,0.0817,0.0782,0.077,0.0768,0.0766,0.0797,0.0798,0.0799,0.0799,0,0.0694,0.0704,0.0763,0.0796,0.0806,0.0848,0.0837,0.0822,0.0787,0.0771,0.074,0.077,0.0785,0.0848,0.0882,0.0894,0.0799,0.0812,0.0758,0.0799,0.0804,0.0792,0.0788,0.0808,0.0807,0.0806,0.0806,0.0805,0.071,0.0739,0.0782,0.081,0.0835,0.0862,0.0872,0.0884,0.0882,0.0866,0.0826,0.0865,0.09,0.1018,0.0958,0.0857,0.0932,0.088,0.0874,0.0869,0.0901,0.0912,0.0939,0.0939,0.0939,0.0939,0.0939,0,0.074,0.0742,0.0784,0.0834,0.0892,0.0874,0.0878,0.0895,0.0917,0.0942,0.0972,0.0954,0.1057,0.0997,0.0908,0.0907,0.0851,0.0815,0.0753,0.0752,0.0748,0.0769,0.0774,0.0772,0.077,0.0768,0,0,0.0752,0.0777,0.0796,0.087,0.0896,0.0891,0.0888,0.0942,0.0953,0.0993,0.1011,0.1195,0.1125,0.1015,0.0973,0.0837,0.0769,0.0792,0.0954,0.089,0.0883,0.0846,0.0887,0,0,0,0,0]}],[{"header":{"parameterUnit":"m.s-1","parameterCategory":2,"la1":30.2991,"la2":30.254,"lo1":-89.0895,"lo2":-89.0444,"dy":0.0017,"dx":0.0017,"nx":28,"ny":28,"refTime":"2023-10-14T03:00:00:Z","depth":"4","parameterNumber":2,"parameterNumberName":"U-component_of_CURRENTS"},"data":[0,0,0,0,0,0,0,0,0,0,0,0,0,0,0,0,0,0,0,0,0,0,0,0,0,0,0,0,0,0,0,0,0,0,0,0,0,0,0,0,0,0,0,0,0,0,0,0,0,0,0,0,0,0,0,0,0,0,-0.0449,-0.0449,0,-0.0436,-0.0436,-0.0436,-0.0433,-0.0433,-0.0434,-0.0434,-0.0418,-0.0417,-0.0416,0,0,0,0,0,0,0,0,0,0,0,0,0,-0.0472,-0.0471,-0.0449,-0.0449,-0.0449,-0.0436,-0.0436,-0.0436,-0.0433,-0.0433,-0.0434,-0.0434,-0.0418,-0.0417,-0.0416,0,0,0,0,0,0,0,0,0,0,0,0,0,-0.046,-0.0471,-0.0449,-0.0447,-0.0446,-0.0436,-0.0436,-0.0436,-0.0433,-0.0433,-0.0434,-0.0434,-0.0418,-0.0417,-0.0416,-0.0405,0,0,-0.0413,-0.0413,0,0,0,0,0,0,0,0,-0.0461,-0.0459,-0.0447,-0.0447,-0.0446,-0.0437,-0.0438,-0.0426,-0.0433,-0.0437,-0.0434,-0.0434,-0.0424,-0.0423,-0.0419,-0.0405,-0.0404,-0.0413,-0.0413,-0.0412,-0.0412,0,0,0,0,0,0,0,-0.0461,-0.0459,-0.0443,-0.0447,-0.0447,-0.0446,-0.0445,-0.0436,-0.0429,-0.0437,-0.0437,-0.0437,-0.0424,-0.042,-0.0418,-0.0404,-0.0413,-0.0413,-0.0412,-0.0412,-0.0377,-0.0377,0,0,0,0,0,0,-0.0464,-0.046,-0.0444,-0.0443,-0.0455,-0.0446,-0.0444,-0.0439,-0.0429,-0.0428,-0.0436,-0.0437,-0.0421,-0.0419,-0.0418,-0.0414,-0.0412,-0.0412,-0.0411,-0.0378,-0.0377,-0.0377,0,0,0,0,0,0,-0.0464,-0.0462,-0.0444,-0.0452,-0.045,-0.0445,-0.044,-0.0439,-0.0441,-0.0429,-0.0427,-0.044,-0.0421,-0.0419,-0.0408,-0.0413,-0.0411,-0.041,-0.0378,-0.0377,-0.0377,-0.04,0,0,0,0,0,0,-0.0465,-0.0463,-0.0459,-0.0452,-0.045,-0.0442,-0.044,-0.0439,-0.044,-0.044,-0.0431,-0.043,-0.0421,-0.041,-0.0407,-0.0412,-0.041,-0.0379,-0.0378,-0.0377,-0.04,-0.0401,-0.0401,0,0,0,0,0,-0.0466,-0.0462,-0.0459,-0.0457,-0.0445,-0.0442,-0.044,-0.0437,-0.044,-0.044,-0.0431,-0.043,-0.0404,-0.0409,-0.0406,-0.041,-0.0379,-0.0378,-0.0377,-0.04,-0.04,-0.0401,0,0,0,0,0,0,-0.0477,-0.0461,-0.0458,-0.0451,-0.0448,-0.0442,-0.0441,-0.0441,-0.0434,-0.0435,-0.0425,-0.0423,-0.0415,-0.0406,-0.0411,-0.0396,-0.0391,-0.039,-0.0409,-0.041,-0.041,-0.0389,-0.0409,0,0,0,0,0,-0.0476,-0.0465,-0.0458,-0.0453,-0.0452,-0.0448,-0.0446,-0.0446,-0.0439,-0.0437,-0.0429,-0.0417,-0.0408,-0.0404,-0.0392,-0.0384,-0.0361,-0.0384,-0.0385,-0.0385,-0.0365,-0.0332,-0.0327,-0.0374,-0.0374,-0.0374,0,0,-0.048,-0.047,-0.0465,-0.0454,-0.0451,-0.0442,-0.0448,-0.0448,-0.0438,-0.0436,-0.042,-0.042,-0.0406,-0.0396,-0.0392,-0.0391,-0.0364,-0.0384,-0.0385,-0.0364,-0.033,-0.0326,-0.0322,-0.0373,-0.0373,-0.0374,0,0,-0.0483,-0.0474,-0.0466,-0.0459,-0.0453,-0.0446,-0.0448,-0.0442,-0.0438,-0.0424,-0.0423,-0.0419,-0.0401,-0.0394,-0.0388,-0.0381,-0.0367,-0.0386,-0.0373,-0.0342,-0.0338,-0.0334,-0.0317,-0.0312,-0.0387,-0.0387,-0.0387,0,-0.0489,-0.0474,-0.0466,-0.0456,-0.0447,-0.0447,-0.0438,-0.0431,-0.0422,-0.0413,-0.0418,-0.0393,-0.0394,-0.0378,-0.038,-0.0383,-0.0365,-0.0377,-0.0343,-0.0338,-0.0334,-0.0317,-0.0311,-0.0388,-0.0388,-0.0388,-0.0388,0,-0.048,-0.0471,-0.0468,-0.0447,-0.0437,-0.0432,-0.0419,-0.041,-0.0404,-0.0395,-0.038,-0.0379,-0.0359,-0.0372,-0.0374,-0.0351,-0.035,-0.035,-0.0343,-0.033,-0.0315,-0.0307,-0.0389,-0.0389,-0.0389,-0.0388,0,0,-0.048,-0.0464,-0.0462,-0.045,-0.043,-0.042,-0.0401,-0.038,-0.0362,-0.0357,-0.0334,-0.0333,-0.0335,-0.0326,-0.034,-0.0323,-0.0296,-0.0324,-0.0322,-0.031,-0.0233,-0.0268,-0.0264,-0.0291,-0.029,-0.0288,-0.0242,0,-0.0475,-0.0456,-0.0447,-0.0424,-0.0411,-0.0397,-0.0372,-0.0353,-0.0338,-0.0316,-0.0316,-0.0301,-0.0317,-0.0318,-0.0301,-0.0295,-0.0273,-0.0308,-0.0243,-0.024,-0.0276,-0.0255,-0.0283,-0.0237,-0.0235,-0.0233,-0.0233,0,-0.046,-0.0447,-0.043,-0.0401,-0.0394,-0.0378,-0.0334,-0.0316,-0.0286,-0.0274,-0.0258,-0.026,-0.0243,-0.0259,-0.0218,-0.0239,-0.0227,-0.0223,-0.0221,-0.0233,-0.0261,-0.0246,-0.0219,-0.022,-0.0221,-0.0222,-0.0223,0,-0.0448,-0.0431,-0.0415,-0.0405,-0.0375,-0.0359,-0.0338,-0.0303,-0.0284,-0.0251,-0.0239,-0.0212,-0.0207,-0.0175,-0.0185,-0.0188,-0.0144,-0.0145,-0.0162,-0.0165,-0.0138,-0.0142,-0.0095,-0.0095,-0.0095,-0.0095,-0.0095,0,-0.043,-0.0418,-0.0409,-0.0397,-0.0366,-0.0347,-0.031,-0.0286,-0.0256,-0.0236,-0.0221,-0.0213,-0.0183,-0.0172,-0.0161,-0.0148,-0.012,-0.0144,-0.0147,-0.0152,-0.0159,-0.0134,-0.0139,-0.0093,-0.0094,-0.0094,-0.0094,0,-0.0416,-0.0413,-0.0395,-0.0372,-0.0361,-0.0337,-0.0299,-0.0277,-0.0248,-0.0225,-0.0218,-0.02,-0.0178,-0.0165,-0.0126,-0.0128,-0.0109,-0.0113,-0.0131,-0.0139,-0.015,-0.0157,-0.0094,-0.0095,-0.0095,-0.0096,-0.0096,0,-0.0406,-0.0398,-0.0381,-0.0372,-0.0363,-0.0329,-0.0307,-0.0271,-0.0258,-0.0229,-0.0229,-0.0205,-0.0194,-0.016,-0.0147,-0.0113,-0.0121,-0.0111,-0.0109,-0.0136,-0.0146,-0.0152,-0.0158,-0.0097,-0.0097,-0.0097,-0.0097,0,-0.039,-0.0392,-0.038,-0.0368,-0.0351,-0.0328,-0.0305,-0.0299,-0.0269,-0.0238,-0.0226,-0.021,-0.019,-0.0164,-0.0151,-0.0133,-0.0112,-0.0116,-0.0114,-0.0112,-0.014,-0.015,-0.0155,-0.0099,-0.0099,-0.0099,-0.0099,0,-0.0382,-0.0374,-0.0373,-0.036,-0.0346,-0.0348,-0.033,-0.0314,-0.0291,-0.0261,-0.0259,-0.0229,-0.0197,-0.0177,-0.0169,-0.0151,-0.0134,-0.0131,-0.0127,-0.0125,-0.0159,-0.02,-0.0166,0,0,0,0,0,-0.0366,-0.0364,-0.0363,-0.036,-0.0357,-0.0351,-0.0338,-0.0328,-0.0303,-0.0289,-0.0269,-0.0249,-0.0217,-0.0207,-0.0188,-0.019,-0.0149,-0.0172,-0.0148,-0.011,-0.0108,-0.0147,0,0,0,0,0,0,-0.0356,-0.0353,-0.0363,-0.0372,-0.0375,-0.0373,-0.037,-0.0361,-0.035,-0.0316,-0.0294,-0.0249,-0.0217,-0.0217,-0.0186,-0.0181,-0.0167,-0.0142,-0.0142,-0.0112,-0.011,-0.0108,-0.0147,0,0,0,0,0]},{"header":{"parameterUnit":"m.s-1","parameterCategory":2,"la1":30.2991,"la2":30.254,"lo1":-89.0895,"lo2":-89.0444,"dy":0.0017,"dx":0.0017,"nx":28,"ny":28,"refTime":"2023-10-14T03:00:00:Z","depth":"4","parameterNumber":3,"parameterNumberName":"V-component_of_CURRENTS"},"data":[0,0,0,0,0,0,0,0,0,0,0,0,0,0,0,0,0,0,0,0,0,0,0,0,0,0,0,0,0,0,0,0,0,0,0,0,0,0,0,0,0,0,0,0,0,0,0,0,0,0,0,0,0,0,0,0,0,0,0.0609,0.0609,0,0.0641,0.0641,0.0641,0.0672,0.0672,0.0672,0.0673,0.0683,0.0683,0.0682,0,0,0,0,0,0,0,0,0,0,0,0,0,0.0568,0.0569,0.0609,0.061,0.061,0.0641,0.0641,0.0641,0.0672,0.0672,0.0673,0.0673,0.0683,0.0683,0.0682,0,0,0,0,0,0,0,0,0,0,0,0,0,0.0591,0.0569,0.0609,0.0629,0.0631,0.0641,0.0641,0.0641,0.0671,0.0672,0.0673,0.0673,0.0683,0.0683,0.0682,0.0668,0,0,0.0682,0.0682,0,0,0,0,0,0,0,0,0.059,0.0593,0.0626,0.0628,0.063,0.0653,0.063,0.0649,0.0671,0.0656,0.0673,0.0674,0.0671,0.0672,0.0676,0.0668,0.0669,0.0682,0.0682,0.0681,0.0681,0,0,0,0,0,0,0,0.0588,0.0591,0.0621,0.0626,0.0629,0.0634,0.0638,0.0634,0.0658,0.0657,0.0659,0.0664,0.0672,0.0676,0.0676,0.0669,0.0682,0.0682,0.0681,0.0681,0.0705,0.0705,0,0,0,0,0,0,0.0585,0.059,0.062,0.0622,0.0612,0.0635,0.0639,0.0645,0.0659,0.0662,0.0663,0.0665,0.0676,0.0676,0.0676,0.0699,0.0681,0.0681,0.0681,0.0704,0.0705,0.0706,0,0,0,0,0,0,0.0584,0.0587,0.0619,0.0607,0.0611,0.0635,0.0641,0.0645,0.0661,0.0664,0.0667,0.0676,0.0676,0.0677,0.0691,0.0698,0.0681,0.0681,0.0703,0.0704,0.0705,0.0718,0,0,0,0,0,0,0.0583,0.0587,0.0596,0.0607,0.0612,0.0634,0.064,0.0645,0.0662,0.0665,0.0675,0.0676,0.0677,0.0691,0.0691,0.0697,0.0681,0.0702,0.0703,0.0705,0.0717,0.072,0.0722,0,0,0,0,0,0.0581,0.0587,0.0596,0.0601,0.0622,0.0634,0.0638,0.0656,0.0662,0.0672,0.0683,0.0677,0.07,0.0692,0.0691,0.0697,0.0701,0.0703,0.0705,0.0716,0.0719,0.0722,0,0,0,0,0,0,0.0577,0.0591,0.0602,0.0613,0.0628,0.064,0.065,0.0659,0.0676,0.0681,0.0683,0.0685,0.0702,0.0699,0.069,0.071,0.07,0.0702,0.0709,0.0712,0.0715,0.0724,0.0681,0,0,0,0,0,0.058,0.0588,0.0603,0.0615,0.0621,0.0637,0.0646,0.0658,0.0671,0.0679,0.0689,0.0698,0.0705,0.0709,0.0716,0.0721,0.0736,0.0727,0.073,0.0732,0.074,0.0752,0.0756,0.0711,0.0711,0.0711,0,0,0.0582,0.0591,0.0597,0.0615,0.0627,0.0639,0.0644,0.066,0.0674,0.0676,0.07,0.0708,0.071,0.0724,0.073,0.0723,0.0759,0.0734,0.0736,0.0743,0.0754,0.0758,0.0762,0.0712,0.0712,0.0712,0,0,0.0584,0.0598,0.0605,0.0618,0.0638,0.0646,0.0652,0.0672,0.0685,0.0707,0.0713,0.0725,0.074,0.0742,0.0743,0.0761,0.0774,0.0768,0.0785,0.0796,0.0799,0.0803,0.0855,0.0863,0.0767,0.0767,0.0767,0,0.0588,0.06,0.061,0.0622,0.0635,0.065,0.0663,0.0675,0.07,0.0713,0.072,0.0751,0.0747,0.0759,0.077,0.0765,0.0794,0.077,0.0799,0.0802,0.0805,0.0857,0.0866,0.0768,0.0768,0.0768,0.0768,0,0.0593,0.061,0.0615,0.0635,0.065,0.0664,0.0681,0.0697,0.0715,0.0735,0.0764,0.0768,0.0789,0.0786,0.0784,0.0805,0.0828,0.0801,0.0788,0.081,0.0865,0.0873,0.0769,0.0769,0.0769,0.0768,0,0,0.0581,0.0613,0.0616,0.0634,0.066,0.0673,0.069,0.0714,0.0732,0.0762,0.0789,0.0802,0.0819,0.0822,0.082,0.0827,0.0875,0.0831,0.0831,0.0881,0.0942,0.087,0.0873,0.0855,0.0856,0.0857,0.0982,0,0.0585,0.0607,0.0623,0.0653,0.0669,0.0689,0.0708,0.0734,0.0755,0.0784,0.0798,0.0827,0.0828,0.0841,0.0851,0.087,0.0894,0.0846,0.0916,0.092,0.0848,0.0878,0.086,0.0988,0.099,0.0991,0.0993,0,0.0585,0.06,0.063,0.067,0.068,0.0704,0.0737,0.076,0.0794,0.0813,0.0845,0.086,0.0897,0.0876,0.0942,0.0919,0.0939,0.0949,0.0953,0.0884,0.0861,0.0955,0.1008,0.1007,0.1006,0.1004,0.1004,0,0.0571,0.0608,0.0634,0.0649,0.0692,0.0715,0.0744,0.0778,0.081,0.0843,0.0874,0.0907,0.0953,0.0968,0.101,0.0982,0.1082,0.1035,0.0997,0.0995,0.1018,0.1012,0.1072,0.1071,0.1071,0.1071,0.107,0,0.0566,0.059,0.0637,0.0653,0.0699,0.0729,0.0779,0.0802,0.0847,0.0907,0.0907,0.0952,0.0979,0.1034,0.104,0.1068,0.1115,0.1016,0.1013,0.1026,0.102,0.1026,0.1019,0.1075,0.1074,0.1073,0.1073,0,0.0553,0.0582,0.0622,0.0673,0.07,0.074,0.082,0.0855,0.0893,0.0966,0.0987,0.103,0.11,0.1126,0.1173,0.1122,0.1131,0.1126,0.119,0.1188,0.1035,0.1028,0.1085,0.1083,0.1082,0.1081,0.1079,0,0.0549,0.0567,0.0639,0.0681,0.0715,0.078,0.083,0.0881,0.0929,0.1019,0.1062,0.1134,0.1162,0.1192,0.1195,0.1203,0.117,0.1165,0.104,0.104,0.1033,0.1028,0.1023,0.1077,0.1077,0.1076,0.1076,0,0.0537,0.0571,0.0604,0.0695,0.0763,0.0832,0.0911,0.094,0.1019,0.1054,0.1112,0.1106,0.1182,0.1178,0.1198,0.1188,0.1147,0.1148,0.115,0.1033,0.1032,0.1025,0.1021,0.1071,0.1072,0.1072,0.1072,0,0.0539,0.0568,0.0631,0.0718,0.0801,0.0881,0.0908,0.0974,0.1022,0.1102,0.1132,0.1179,0.1224,0.1176,0.1195,0.1175,0.1123,0.1039,0.1045,0.1051,0.0965,0.0954,0.0979,0,0,0,0,0,0.0541,0.0595,0.0656,0.0763,0.0841,0.0902,0.0972,0.0993,0.1061,0.1092,0.1104,0.1159,0.1142,0.1146,0.1113,0.1155,0.1128,0.1105,0.1036,0.1043,0.1049,0.0941,0,0,0,0,0,0,0.0552,0.0614,0.0656,0.0786,0.0866,0.0964,0.1006,0.1042,0.1048,0.1095,0.1099,0.1097,0.1108,0.119,0.1109,0.1106,0.1032,0.1119,0.1115,0.104,0.1045,0.105,0.0941,0,0,0,0,0]}]]